This is the latest recevied weather packets stored in our database for station/object AJ5AG. If no packets are shown the sender has not sent any weather packets the latest 10 day(s).
| Time | Temp. | Humidity | Pressure | Rain* | Wind** | Luminosity | Snow |
|---|---|---|---|---|---|---|---|
| 1777380486 | 24.44° C | 94% | 1015.8 hPa | 0 mm | - | 38 W/m² | - |
| 1777380183 | 24.44° C | 94% | 1015.8 hPa | 0 mm | - | 42 W/m² | - |
| 1777379879 | 23.89° C | 95% | 1015.7 hPa | 0 mm | - | 50 W/m² | - |
| 1777379574 | 23.89° C | 95% | 1015.5 hPa | 0 mm | - | 44 W/m² | - |
| 1777379270 | 23.89° C | 95% | 1015.5 hPa | 0 mm | - | 28 W/m² | - |
| 1777378965 | 23.89° C | 95% | 1015.6 hPa | 0 mm | - | 18 W/m² | - |
| 1777378661 | 23.89° C | 94% | 1015.4 hPa | 0 mm | - | 16 W/m² | - |
| 1777378358 | 23.89° C | 94% | 1015.3 hPa | 0 mm | - | 10 W/m² | - |
| 1777378058 | 23.89° C | 94% | 1015.4 hPa | 0 mm | - | 9 W/m² | - |
| 1777377752 | 23.89° C | 94% | 1015.4 hPa | 0 mm | - | 9 W/m² | - |
| 1777377447 | 23.89° C | 94% | 1015.4 hPa | 0 mm | - | 6 W/m² | - |
| 1777377143 | 23.89° C | 94% | 1015.4 hPa | 0 mm | - | 4 W/m² | - |
| 1777376840 | 23.89° C | 94% | 1015.2 hPa | 0 mm | - | 3 W/m² | - |
| 1777376537 | 23.89° C | 94% | 1015.2 hPa | 0 mm | - | 2 W/m² | - |
| 1777376233 | 23.89° C | 94% | 1015.1 hPa | 0 mm | - | 1 W/m² | - |
| 1777375928 | 23.89° C | 94% | 1015.1 hPa | 0 mm | - | 0 W/m² | - |
| 1777375622 | 24.44° C | 94% | 1014.8 hPa | 0 mm | - | 0 W/m² | - |
| 1777375317 | 24.44° C | 94% | 1014.8 hPa | 0 mm | - | 0 W/m² | - |
| 1777375015 | 24.44° C | 94% | 1014.8 hPa | 0 mm | - | 0 W/m² | - |
| 1777374710 | 24.44° C | 94% | 1014.8 hPa | 0 mm | - | 0 W/m² | - |
| 1777374406 | 24.44° C | 94% | 1014.8 hPa | 0 mm | - | 0 W/m² | - |
| 1777374104 | 24.44° C | 94% | 1014.7 hPa | 0 mm | - | 0 W/m² | - |
| 1777373799 | 24.44° C | 94% | 1014.7 hPa | 0 mm | - | 0 W/m² | - |
| 1777373498 | 24.44° C | 94% | 1014.6 hPa | 0 mm | - | 0 W/m² | - |
| 1777373192 | 24.44° C | 94% | 1014.6 hPa | 0 mm | - | 0 W/m² | - |
* Rain latest hour (hover to see other rain measurements)
** Current wind speed in m/s (hover to see current wind gust speed)